Regional Weather Roundup
Issued by NWS Charleston, SC

Current Version | Previous Version | Text Only | Print | Product List | Glossary Off
Versions: 1 2 3 4 5 6 7 8 9 10 11 12 13 14 15 16 17 18 19 20 21 22 23 24 25 26 27 28 29 30 31 32 33 34 35 36 37 38 39 40 41 42 43 44 45 46 47 48 49 50

000
ASUS42 KCHS 311710
RWRCHS

REGIONAL WEATHER ROUNDUP
NATIONAL WEATHER SERVICE CHARLESTON SC
100 PM EDT FRI OCT 31 2014

NOTE: "FAIR" INDICATES FEW OR NO CLOUDS BELOW 12,000 FEET WITH NO
SIGNIFICANT WEATHER AND/OR OBSTRUCTIONS TO VISIBILITY.

NOT ALL STATIONS ARE QUALITY CONTROLLED BY THE NATIONAL
WEATHER SERVICE. USE DATA WITH CAUTION...ESPECIALLY
DEWPOINT OBSERVATIONS.

SCZ027-030-031-034>040-042>050-311800-
...SOUTH CAROLINA...

CITY           SKY/WX    TMP DP  RH WIND       PRES   REMARKS
N CHARLESTON   SUNNY     71  43  36 N8        29.86F
WATERFRONT PRK   N/A     66 N/A N/A N10         N/A
FORT JOHNSON   NOT AVBL
JOHNS ISLAND   MOSUNNY   70  52  52 N8        29.86F
PINOPOLIS      NOT AVBL
MONCKS CORNER  FAIR      68  50  52 N5        29.86F
SUMMERVILLE    FAIR      68  45  42 N5        29.86F
BEAUFORT MCAS  MOSUNNY   71  46  40 NE5       29.85F
BEAUFORT ARPT  FAIR      68  50  52 NE6       29.85F
HILTON HEAD IS SUNNY     70  46  43 N8        29.87F
GEORGETOWN     NOT AVBL
WALTERBORO     MOSUNNY   70  41  35 N5        29.86F
ORANGEBURG     SUNNY     66  45  46 VRB3      29.87F
BARNWELL       FAIR      70  46  43 SW7       29.87F
AIKEN          PTSUNNY   66  50  55 NE6       29.90F
MANNING        FAIR      68  45  42 CALM      29.87F
KINGSTREE      NOT AVBL
COLUMBIA       PTSUNNY   65  47  52 SE5       29.87F
SUMTER         SUNNY     65  46  51 VRB6      29.86F
FLORENCE       SUNNY     64  46  52 CALM      29.87F
MYRTLE BEACH   MOSUNNY   66  43  42 N15       29.86F
N MYRTLE BEACH SUNNY     66  44  45 NE15      29.84F

$$

GAZ063-065-086>088-099>101-113>116-118-119-134-136>141-150-311800-
...GEORGIA...

CITY           SKY/WX    TMP DP  RH WIND       PRES   REMARKS
SAVANNAH ARPT  MOSUNNY   73  45  36 VRB3      29.86F
HUNTER AAF     MOSUNNY   72  47  40 VRB7      29.84F
FORT STEWART   MOSUNNY   71  46  41 NW6       29.85F
STATESBORO     NOT AVBL
SYLVANIA       PTSUNNY   72  55  53 CALM      29.87F
CLAXTON        PTSUNNY   68  54  60 CALM      29.87F
THOMSON        SUNNY     67  53  61 CALM      29.92F
AUGUSTA-BUSH   PTSUNNY   68  49  50 CALM      29.87F
AUGUSTA-DANIEL PTSUNNY   69  48  47 VRB5      29.88F
SWAINSBORO     PTSUNNY   68  54  60 MISG      29.88F
VIDALIA        PTSUNNY   70  54  56 SW8       29.88F
ALMA           MOSUNNY   68  50  52 NW8       29.87F
WAYCROSS       MOSUNNY   72  57  59 NW6       29.87F
JESUP          PTSUNNY   72  54  53 N7        29.87F
BRUNSWICK      MOSUNNY   72  46  40 N6        29.86F
SAINT SIMONS   MOSUNNY   72  48  42 NW9       29.85F

$$

SCZ027-028-034-036>038-045-046-048>050-GAZ119-141-311800-
...LAKE AND SUPPLEMENTAL COASTAL OBSERVATIONS...

STATION/POSITION TIME  TEMP    WIND        PRES    WAVE   SWELL
                       AIR SEA DIR/SP/G            HT/PER HT/PER/DIR
                 (UTC) (F)     (DEG/KT/KT) (MB)    (FT/S) (FT/S/D)
UPR LAKE MARION  NOT AVBL
WINYAH BAY       1600   62      50/ 13     1012.0S
LAKE MURRAY      1600   60     100/  2/  5 1011.9F
ACE BASIN NERRS  1600   69      30/  3     1012.0S
FORT PULASKI     1700   68      40/  7/ 11 1011.1F
SAPELO ISLAND    NOT AVBL

$$

ANZ835-935-AMZ111-154-330-350-352-354-374-450-454-472-311800-
...C-MAN AND BUOY OBSERVATIONS...

STATION/POSITION TIME  TEMP    WIND        PRES    WAVE   SWELL
                       AIR SEA DIR/SP/G            HT/PER HT/PER/DIR
                 (UTC) (F)     (DEG/KT/KT) (MB)    (FT/S) (FT/S/D)
FOLLY BEACH CMAN 1600   64      30/ 14/ 16 1011.9F
BUOY 41004       1700   67 76   10/ 14/ 19 1009.4F   6/ 7   3/ 7
BUOY 41008       1600   67 74   10/ 12/ 16 1011.4F   3/ 6   2/ 80/ 6
5E ST. MARYS GA  1700      76                N/A     3/ 4
FRYING PAN BUOY  1700   64 72   30/ 16/ 19 1010.1F   5/ 7   2/ 50/13
BUOY 41025       1700   65     360/ 21/ 27 1007.6F   7/ 7   2/ 50/10
CAPE LOOKOUT NC  1600   62      10/ 14/ 19 1009.8F
BUOY 41002       NOT AVBL
BUOY 41010       1700   69 82  310/ 19/ 25 1008.5F   3/ 8
BUOY 41012       NOT AVBL
ST AUGUSTINE FL  1700   70     340/  9/ 12 1010.9F
CAPERS NEARSHORE 1600   64      40/ 12/ 16   N/A
FRIPP NEARSHORE  NOT AVBL


$$



USA.gov is the U.S. government's official web portal to all federal, state and local government web resources and services.